CEB429 ROAH-RPLB

Flight info

Callsign CEB429
Flight time N/A
Altitude 36000
Route GANJU Y576 GANAS Y62 MJC B462 LAO M646 SANRO B591 TATIL W16 CIA TR24 KIBOK KIBOK1G
Aircraft A21N/M-SDE2E3FGHIRWXY/LB1

Departure

Time N/A
Airport Naha International Airport (ROAH)

Arrival

Time 2026-05-05 07:32
Airport Subic Bay International Airport / Naval Air Station Cubi Point (RPLB)
Time Latitude Longitude Altitude Speed Heading
2026-05-05 05:32 25.89678 126.76641 23298 ft 383 kts 239°
2026-05-05 05:32 25.88264 126.74156 23581 ft 385 kts 239°
2026-05-05 05:32 25.86861 126.71610 23880 ft 386 kts 240°
2026-05-05 05:32 25.85542 126.69043 24161 ft 387 kts 242°
2026-05-05 05:33 25.84197 126.66420 24455 ft 388 kts 242°
2026-05-05 05:33 25.82866 126.63826 24740 ft 390 kts 242°
2026-05-05 05:33 25.81533 126.61227 25031 ft 391 kts 242°
2026-05-05 05:33 25.80188 126.58608 25298 ft 392 kts 242°
2026-05-05 05:34 25.78843 126.55985 25565 ft 393 kts 242°
2026-05-05 05:34 25.77474 126.53322 25834 ft 395 kts 242°
2026-05-05 05:34 25.76125 126.50699 26082 ft 396 kts 242°
2026-05-05 05:34 25.74765 126.48056 26343 ft 397 kts 242°
2026-05-05 05:35 25.73380 126.45368 26572 ft 399 kts 242°
2026-05-05 05:35 25.72021 126.42730 26804 ft 400 kts 242°
2026-05-05 05:35 25.70637 126.40044 27055 ft 401 kts 242°
2026-05-05 05:35 25.69252 126.37361 27294 ft 402 kts 242°
2026-05-05 05:36 25.67870 126.34686 27529 ft 403 kts 242°
2026-05-05 05:36 25.66472 126.31976 27775 ft 404 kts 242°
2026-05-05 05:36 25.65068 126.29263 28001 ft 406 kts 242°
2026-05-05 05:36 25.63671 126.26562 28253 ft 406 kts 242°
2026-05-05 05:37 25.62265 126.23849 28625 ft 404 kts 242°
2026-05-05 05:37 25.60870 126.21153 29044 ft 401 kts 242°
2026-05-05 05:37 25.59500 126.18512 29399 ft 400 kts 242°
2026-05-05 05:37 25.58127 126.15857 29738 ft 399 kts 242°
2026-05-05 05:38 25.56739 126.13180 30147 ft 396 kts 242°
2026-05-05 05:38 25.55376 126.10554 30519 ft 394 kts 242°
2026-05-05 05:38 25.54016 126.07933 30858 ft 393 kts 242°
2026-05-05 05:38 25.52661 126.05326 31200 ft 391 kts 242°
2026-05-05 05:39 25.51308 126.02726 31531 ft 390 kts 242°
2026-05-05 05:39 25.49962 126.00135 31872 ft 388 kts 242°
2026-05-05 05:39 25.48622 125.97567 32209 ft 386 kts 243°
2026-05-05 05:39 25.47234 125.95026 32510 ft 386 kts 240°
2026-05-05 05:40 25.45732 125.92572 32806 ft 386 kts 238°
2026-05-05 05:40 25.44108 125.90192 33102 ft 386 kts 236°
2026-05-05 05:40 25.42398 125.87923 33402 ft 386 kts 233°
2026-05-05 05:40 25.40589 125.85751 33683 ft 387 kts 231°
2026-05-05 05:41 25.38664 125.83662 33909 ft 389 kts 229°
2026-05-05 05:41 25.36638 125.81674 34122 ft 391 kts 226°
2026-05-05 05:41 25.34516 125.79759 34338 ft 392 kts 225°
2026-05-05 05:41 25.32397 125.77855 34548 ft 392 kts 225°
2026-05-05 05:42 25.30295 125.75970 34728 ft 393 kts 225°
2026-05-05 05:42 25.28154 125.74053 34908 ft 394 kts 225°
2026-05-05 05:42 25.26035 125.72159 35071 ft 395 kts 225°
2026-05-05 05:42 25.23886 125.70241 35231 ft 396 kts 225°
2026-05-05 05:43 25.21762 125.68348 35377 ft 397 kts 225°
2026-05-05 05:43 25.19607 125.66428 35520 ft 398 kts 225°
2026-05-05 05:43 25.17437 125.64494 35682 ft 398 kts 225°
2026-05-05 05:43 25.15285 125.62581 35808 ft 399 kts 225°
2026-05-05 05:44 25.13120 125.60656 35919 ft 401 kts 225°
2026-05-05 05:44 25.10944 125.58723 36011 ft 402 kts 225°
2026-05-05 05:44 25.06568 125.54838 36018 ft 404 kts 225°
2026-05-05 05:45 25.02199 125.50963 36028 ft 404 kts 225°
2026-05-05 05:45 24.97806 125.47067 36025 ft 404 kts 225°
2026-05-05 05:46 24.93407 125.43174 36029 ft 405 kts 225°
2026-05-05 05:46 24.89032 125.39302 36031 ft 406 kts 225°
2026-05-05 05:47 24.84620 125.35402 36033 ft 406 kts 225°
2026-05-05 05:47 24.80220 125.31517 36032 ft 406 kts 225°
2026-05-05 05:48 24.75692 125.27777 36029 ft 410 kts 221°
2026-05-05 05:48 24.70976 125.24180 36028 ft 410 kts 221°
2026-05-05 05:49 24.66296 125.20616 36029 ft 409 kts 221°
2026-05-05 05:49 24.61617 125.17059 36027 ft 409 kts 221°
2026-05-05 05:50 24.56942 125.13509 36021 ft 410 kts 221°
2026-05-05 05:50 24.52251 125.09952 36014 ft 411 kts 221°
2026-05-05 05:51 24.47536 125.06380 35998 ft 411 kts 221°
2026-05-05 05:51 24.43597 125.03396 35997 ft 411 kts 220°
2026-05-05 05:52 24.38133 124.99262 35993 ft 411 kts 220°
2026-05-05 05:52 24.33397 124.95682 35992 ft 411 kts 220°
2026-05-05 05:53 24.28707 124.92140 35990 ft 411 kts 220°
2026-05-05 05:53 24.23979 124.88573 35988 ft 412 kts 220°
2026-05-05 05:54 24.19284 124.85034 35986 ft 413 kts 220°
2026-05-05 05:54 24.14531 124.81455 35985 ft 413 kts 220°
2026-05-05 05:55 24.09811 124.77904 35985 ft 413 kts 220°
2026-05-05 05:55 24.05082 124.74348 35984 ft 412 kts 220°
2026-05-05 05:56 24.00355 124.70799 35984 ft 412 kts 220°
2026-05-05 05:56 23.95613 124.67239 35984 ft 412 kts 220°
2026-05-05 05:57 23.90897 124.63704 35983 ft 413 kts 220°
2026-05-05 05:57 23.86143 124.60143 35982 ft 413 kts 220°
2026-05-05 05:58 23.81396 124.56593 35980 ft 413 kts 220°
2026-05-05 05:58 23.76666 124.53058 35979 ft 414 kts 220°
2026-05-05 05:59 23.71924 124.49515 35983 ft 414 kts 220°
2026-05-05 05:59 23.67149 124.45951 35977 ft 414 kts 220°
2026-05-05 06:00 23.62382 124.42394 35974 ft 414 kts 220°
2026-05-05 06:00 23.57637 124.38860 35975 ft 414 kts 220°
2026-05-05 06:01 23.52870 124.35313 35974 ft 415 kts 220°
2026-05-05 06:01 23.48106 124.31770 35974 ft 415 kts 219°
2026-05-05 06:02 23.43329 124.28220 35971 ft 416 kts 220°
2026-05-05 06:02 23.38560 124.24680 35980 ft 415 kts 220°
2026-05-05 06:03 23.33767 124.21126 35989 ft 415 kts 219°
2026-05-05 06:03 23.28998 124.17594 35990 ft 416 kts 219°
2026-05-05 06:04 23.24215 124.14056 35987 ft 416 kts 219°
2026-05-05 06:04 23.19435 124.10524 35989 ft 416 kts 219°
2026-05-05 06:05 23.14625 124.06971 35984 ft 416 kts 219°
2026-05-05 06:05 23.09834 124.03437 35985 ft 416 kts 219°
2026-05-05 06:06 23.05045 123.99908 35989 ft 417 kts 219°
2026-05-05 06:06 23.00276 123.96394 35986 ft 417 kts 219°
2026-05-05 06:07 22.95404 123.92886 35972 ft 417 kts 218°
2026-05-05 06:07 22.90552 123.89414 35963 ft 419 kts 219°
2026-05-05 06:08 22.85690 123.85932 35961 ft 419 kts 219°
2026-05-05 06:08 22.80852 123.82467 35961 ft 419 kts 219°
2026-05-05 06:09 22.75976 123.78978 35961 ft 419 kts 218°
2026-05-05 06:09 22.71105 123.75494 35957 ft 419 kts 218°
2026-05-05 06:10 22.66223 123.72008 35958 ft 420 kts 218°
2026-05-05 06:10 22.61356 123.68533 35957 ft 421 kts 219°
2026-05-05 06:11 22.56436 123.65025 35954 ft 423 kts 218°
2026-05-05 06:11 22.51517 123.61521 35951 ft 417 kts 218°
2026-05-05 06:12 22.46778 123.58154 35952 ft 405 kts 219°
2026-05-05 06:12 22.42073 123.54804 35952 ft 405 kts 219°
2026-05-05 06:13 22.37365 123.51457 35952 ft 405 kts 218°
2026-05-05 06:13 22.32670 123.48121 35953 ft 406 kts 219°
2026-05-05 06:14 22.27952 123.44773 35955 ft 406 kts 219°
2026-05-05 06:14 22.23227 123.41423 35954 ft 407 kts 219°
2026-05-05 06:15 22.18484 123.38064 35953 ft 407 kts 218°
2026-05-05 06:15 22.13751 123.34712 35953 ft 407 kts 218°
2026-05-05 06:16 22.09003 123.31355 35951 ft 408 kts 218°
2026-05-05 06:16 22.04258 123.28001 35955 ft 408 kts 218°
2026-05-05 06:17 21.99489 123.24634 35959 ft 408 kts 218°
2026-05-05 06:17 21.94746 123.21288 35960 ft 409 kts 218°
2026-05-05 06:18 21.89983 123.17932 35959 ft 409 kts 218°
2026-05-05 06:18 21.85204 123.14565 35959 ft 409 kts 218°
2026-05-05 06:19 21.80433 123.11208 35960 ft 410 kts 218°
2026-05-05 06:19 21.75683 123.07867 35957 ft 409 kts 218°
2026-05-05 06:20 21.70905 123.04511 35956 ft 409 kts 218°
2026-05-05 06:20 21.66137 123.01162 35953 ft 409 kts 218°
2026-05-05 06:21 21.61377 122.97823 35954 ft 409 kts 218°
2026-05-05 06:21 21.56602 122.94477 35954 ft 410 kts 218°
2026-05-05 06:22 21.51823 122.91129 35951 ft 410 kts 218°
2026-05-05 06:22 21.47029 122.87774 35951 ft 411 kts 218°
2026-05-05 06:23 21.42266 122.84443 35948 ft 410 kts 218°
2026-05-05 06:23 21.37469 122.81092 35945 ft 410 kts 218°
2026-05-05 06:24 21.32675 122.77745 35936 ft 410 kts 218°
2026-05-05 06:24 21.27903 122.74416 35933 ft 411 kts 218°
2026-05-05 06:25 21.23112 122.71076 35930 ft 411 kts 218°
2026-05-05 06:25 21.18321 122.67739 35927 ft 411 kts 218°
2026-05-05 06:26 21.13501 122.64384 35924 ft 412 kts 217°
2026-05-05 06:26 21.08683 122.61033 35922 ft 412 kts 217°
2026-05-05 06:27 21.01476 122.56028 35922 ft 412 kts 217°
2026-05-05 06:28 20.96717 122.52635 35922 ft 411 kts 219°
2026-05-05 06:28 20.92001 122.49169 35924 ft 411 kts 219°
2026-05-05 06:29 20.87255 122.45688 35928 ft 412 kts 219°
2026-05-05 06:29 20.82530 122.42231 35929 ft 412 kts 219°
2026-05-05 06:30 20.77791 122.38770 35928 ft 412 kts 219°
2026-05-05 06:30 20.73055 122.35316 35928 ft 412 kts 219°
2026-05-05 06:31 20.68338 122.31879 35926 ft 412 kts 218°
2026-05-05 06:31 20.63578 122.28411 35928 ft 412 kts 218°
2026-05-05 06:32 20.58838 122.24963 35929 ft 412 kts 218°
2026-05-05 06:32 20.54104 122.21520 35932 ft 412 kts 218°
2026-05-05 06:33 20.49379 122.18088 35933 ft 414 kts 218°
2026-05-05 06:33 20.44529 122.14563 35934 ft 423 kts 218°
2026-05-05 06:34 20.39637 122.11012 35932 ft 430 kts 218°
2026-05-05 06:34 20.34687 122.07426 35929 ft 430 kts 218°
2026-05-05 06:35 20.29724 122.03831 35930 ft 430 kts 218°
2026-05-05 06:35 20.24785 122.00257 35928 ft 430 kts 218°
2026-05-05 06:36 20.19829 121.96674 35925 ft 430 kts 218°
2026-05-05 06:36 20.14883 121.93100 35926 ft 430 kts 218°
2026-05-05 06:37 20.09918 121.89516 35925 ft 431 kts 218°
2026-05-05 06:37 20.04943 121.85925 35925 ft 431 kts 218°
2026-05-05 06:38 19.99972 121.82342 35920 ft 430 kts 218°
2026-05-05 06:38 19.95035 121.78784 35914 ft 430 kts 218°
2026-05-05 06:39 19.90083 121.75221 35906 ft 430 kts 218°
2026-05-05 06:39 19.85109 121.71643 35899 ft 430 kts 218°
2026-05-05 06:40 19.80163 121.68088 35900 ft 431 kts 218°
2026-05-05 06:40 19.75172 121.64503 35899 ft 432 kts 218°
2026-05-05 06:41 19.70206 121.60941 35898 ft 432 kts 218°
2026-05-05 06:41 19.65219 121.57365 35896 ft 432 kts 218°
2026-05-05 06:42 19.60228 121.53790 35898 ft 432 kts 218°
2026-05-05 06:42 19.55259 121.50233 35897 ft 432 kts 218°
2026-05-05 06:43 19.50274 121.46665 35897 ft 432 kts 218°
2026-05-05 06:43 19.45288 121.43102 35898 ft 432 kts 218°
2026-05-05 06:44 19.40285 121.39528 35895 ft 432 kts 218°
2026-05-05 06:44 19.35324 121.35987 35895 ft 433 kts 218°
2026-05-05 06:45 19.30317 121.32415 35894 ft 433 kts 217°
2026-05-05 06:45 19.25323 121.28857 35891 ft 433 kts 217°
2026-05-05 06:46 19.20308 121.25284 35888 ft 434 kts 217°
2026-05-05 06:46 19.15302 121.21722 35885 ft 434 kts 217°
2026-05-05 06:47 19.10312 121.18174 35887 ft 434 kts 217°
2026-05-05 06:47 19.05294 121.14608 35885 ft 434 kts 217°
2026-05-05 06:48 19.00277 121.11046 35882 ft 434 kts 217°
2026-05-05 06:48 18.95266 121.07491 35882 ft 434 kts 217°
2026-05-05 06:49 18.90235 121.03924 35882 ft 435 kts 217°
2026-05-05 06:49 18.85236 121.00382 35879 ft 435 kts 217°
2026-05-05 06:50 18.80197 120.96814 35873 ft 435 kts 217°
2026-05-05 06:50 18.75168 120.93256 35873 ft 435 kts 217°
2026-05-05 06:51 18.70137 120.89698 35875 ft 435 kts 217°
2026-05-05 06:51 18.65100 120.86140 35886 ft 435 kts 217°
2026-05-05 06:52 18.60073 120.82591 35900 ft 436 kts 217°
2026-05-05 06:52 18.55021 120.79029 35910 ft 436 kts 217°
2026-05-05 06:53 18.50000 120.75490 35926 ft 436 kts 217°
2026-05-05 06:53 18.44963 120.71941 35926 ft 436 kts 217°
2026-05-05 06:54 18.39905 120.68382 35921 ft 436 kts 217°
2026-05-05 06:54 18.34848 120.64825 35921 ft 436 kts 217°
2026-05-05 06:55 18.29793 120.61273 35909 ft 436 kts 217°
2026-05-05 06:55 18.24717 120.57752 35904 ft 438 kts 214°
2026-05-05 06:56 18.19289 120.54824 35897 ft 443 kts 206°
2026-05-05 06:56 18.13394 120.52743 35893 ft 447 kts 198°
2026-05-05 06:57 18.07274 120.51614 35885 ft 450 kts 191°
2026-05-05 06:57 18.00981 120.50876 35879 ft 451 kts 190°
2026-05-05 06:58 17.94731 120.50143 35877 ft 450 kts 190°
2026-05-05 06:58 17.88511 120.49408 35881 ft 451 kts 190°
2026-05-05 06:59 17.82270 120.48670 35888 ft 451 kts 190°
2026-05-05 06:59 17.76038 120.47934 35892 ft 451 kts 190°
2026-05-05 07:00 17.69792 120.47197 35898 ft 451 kts 190°
2026-05-05 07:00 17.63559 120.46458 35901 ft 451 kts 190°
2026-05-05 07:01 17.57280 120.45716 35905 ft 451 kts 190°
2026-05-05 07:01 17.51045 120.44980 35912 ft 451 kts 190°
2026-05-05 07:02 17.44817 120.44246 35912 ft 451 kts 190°
2026-05-05 07:02 17.38500 120.43502 35906 ft 459 kts 190°
2026-05-05 07:03 17.32095 120.42750 35900 ft 466 kts 189°
2026-05-05 07:03 17.25608 120.41988 35887 ft 468 kts 190°
2026-05-05 07:04 17.19117 120.41222 35893 ft 468 kts 189°
2026-05-05 07:04 17.12633 120.40457 35900 ft 468 kts 189°
2026-05-05 07:05 17.06123 120.39692 35904 ft 469 kts 189°
2026-05-05 07:05 16.99648 120.38934 35920 ft 469 kts 189°
2026-05-05 07:06 16.93158 120.38173 35920 ft 468 kts 189°
2026-05-05 07:06 16.86664 120.37412 35923 ft 468 kts 189°
2026-05-05 07:07 16.80177 120.36653 35924 ft 467 kts 189°
2026-05-05 07:07 16.73738 120.35904 35921 ft 468 kts 189°
2026-05-05 07:08 16.67199 120.35398 35918 ft 469 kts 187°
2026-05-05 07:08 16.60672 120.34950 35922 ft 469 kts 186°
2026-05-05 07:09 16.54133 120.34504 35913 ft 469 kts 186°
2026-05-05 07:09 16.47614 120.34058 35909 ft 469 kts 186°
2026-05-05 07:10 16.41108 120.33614 35906 ft 468 kts 186°
2026-05-05 07:10 16.34590 120.33170 35898 ft 468 kts 186°
2026-05-05 07:11 16.28086 120.32727 35881 ft 460 kts 186°
2026-05-05 07:11 16.21772 120.32299 35879 ft 452 kts 186°
2026-05-05 07:12 16.15481 120.31870 35873 ft 451 kts 186°
2026-05-05 07:12 16.09185 120.31438 35869 ft 451 kts 186°
2026-05-05 07:12 16.06088 120.31229 35635 ft 450 kts 186°
2026-05-05 07:13 16.02948 120.31015 34821 ft 454 kts 186°
2026-05-05 07:13 15.99779 120.30798 33689 ft 461 kts 186°
2026-05-05 07:13 15.96528 120.30576 32515 ft 468 kts 186°
2026-05-05 07:13 15.93296 120.30354 31552 ft 472 kts 186°
2026-05-05 07:14 15.90012 120.30132 30721 ft 467 kts 185°
2026-05-05 07:14 15.86779 120.29913 29945 ft 462 kts 185°
2026-05-05 07:14 15.83592 120.29699 29192 ft 461 kts 185°
2026-05-05 07:14 15.80351 120.29480 28431 ft 462 kts 185°
2026-05-05 07:15 15.77170 120.29265 27655 ft 462 kts 185°
2026-05-05 07:15 15.73921 120.29045 26830 ft 464 kts 185°
2026-05-05 07:15 15.70715 120.28893 26030 ft 465 kts 180°
2026-05-05 07:15 15.67517 120.29285 25485 ft 461 kts 169°
2026-05-05 07:16 15.64460 120.30292 24934 ft 458 kts 158°
2026-05-05 07:16 15.61645 120.31756 24396 ft 454 kts 152°
2026-05-05 07:16 15.58875 120.33340 23841 ft 450 kts 151°
2026-05-05 07:16 15.56144 120.34921 23288 ft 446 kts 152°
2026-05-05 07:17 15.53457 120.36461 22736 ft 442 kts 152°
2026-05-05 07:17 15.50741 120.37934 22153 ft 439 kts 157°
2026-05-05 07:17 15.47796 120.38654 21486 ft 436 kts 176°
2026-05-05 07:17 15.44744 120.38734 20789 ft 436 kts 180°
2026-05-05 07:18 15.41721 120.38711 20053 ft 436 kts 180°
2026-05-05 07:18 15.38689 120.38705 19317 ft 437 kts 180°
2026-05-05 07:18 15.35653 120.38738 18622 ft 435 kts 179°
2026-05-05 07:18 15.32628 120.38801 18077 ft 429 kts 178°
2026-05-05 07:19 15.29654 120.38880 17489 ft 425 kts 178°
2026-05-05 07:19 15.26705 120.38968 16887 ft 422 kts 178°
2026-05-05 07:19 15.23760 120.39061 16298 ft 419 kts 178°
2026-05-05 07:19 15.20886 120.39154 15720 ft 415 kts 177°
2026-05-05 07:20 15.17977 120.39251 15135 ft 412 kts 177°
2026-05-05 07:20 15.15135 120.39346 14543 ft 408 kts 177°
2026-05-05 07:20 15.12297 120.39439 13968 ft 405 kts 177°
2026-05-05 07:20 15.09483 120.39533 13382 ft 402 kts 177°
2026-05-05 07:21 15.06696 120.39625 12807 ft 399 kts 177°
2026-05-05 07:21 15.03945 120.39715 12250 ft 395 kts 176°
2026-05-05 07:21 15.01186 120.39746 11749 ft 390 kts 182°
2026-05-05 07:21 14.98602 120.39005 11343 ft 385 kts 206°
2026-05-05 07:22 14.96578 120.37268 10995 ft 381 kts 230°
2026-05-05 07:22 14.95334 120.34882 10636 ft 376 kts 247°
2026-05-05 07:22 14.94425 120.32381 10246 ft 369 kts 248°
2026-05-05 07:22 14.93451 120.29942 9935 ft 359 kts 244°
2026-05-05 07:23 14.92422 120.27663 9745 ft 348 kts 242°
2026-05-05 07:23 14.91354 120.25449 9415 ft 341 kts 241°
2026-05-05 07:23 14.90271 120.23270 9067 ft 336 kts 241°
2026-05-05 07:23 14.89215 120.21162 8739 ft 331 kts 241°
2026-05-05 07:24 14.88155 120.19044 8359 ft 326 kts 241°
2026-05-05 07:24 14.87125 120.16987 8037 ft 321 kts 241°
2026-05-05 07:24 14.86118 120.14970 7715 ft 316 kts 241°
2026-05-05 07:24 14.85116 120.12965 7437 ft 311 kts 241°
2026-05-05 07:25 14.84129 120.10992 7120 ft 307 kts 241°
2026-05-05 07:25 14.83160 120.09054 6827 ft 302 kts 241°
2026-05-05 07:25 14.82060 120.07231 6519 ft 295 kts 228°
2026-05-05 07:25 14.80604 120.05779 6215 ft 288 kts 216°
2026-05-05 07:26 14.79032 120.04527 5952 ft 282 kts 214°
2026-05-05 07:26 14.77442 120.03339 5720 ft 274 kts 208°
2026-05-05 07:26 14.75703 120.02788 5424 ft 260 kts 174°
2026-05-05 07:26 14.74036 120.03359 5099 ft 246 kts 137°
2026-05-05 07:27 14.72921 120.04639 4841 ft 239 kts 125°
2026-05-05 07:27 14.71936 120.05997 4549 ft 236 kts 126°
2026-05-05 07:27 14.70903 120.07342 4242 ft 235 kts 126°
2026-05-05 07:27 14.70192 120.08818 3940 ft 231 kts 95°
2026-05-05 07:28 14.70510 120.10406 3655 ft 228 kts 60°
2026-05-05 07:28 14.71420 120.11734 3363 ft 226 kts 55°
2026-05-05 07:28 14.72310 120.13061 3030 ft 225 kts 58°
2026-05-05 07:28 14.73131 120.14435 2639 ft 227 kts 60°
2026-05-05 07:29 14.73909 120.15848 2308 ft 226 kts 60°
2026-05-05 07:29 14.74652 120.17257 2052 ft 214 kts 60°
2026-05-05 07:29 14.75322 120.18559 1736 ft 200 kts 60°
2026-05-05 07:29 14.75949 120.19785 1414 ft 186 kts 60°
2026-05-05 07:30 14.76532 120.20917 1180 ft 170 kts 61°
2026-05-05 07:30 14.77552 120.22913 695 ft 144 kts 62°
2026-05-05 07:30 14.78013 120.23817 502 ft 140 kts 62°
2026-05-05 07:31 14.78447 120.24709 327 ft 140 kts 66°
2026-05-05 07:31 14.78842 120.25636 171 ft 139 kts 68°
2026-05-05 07:31 14.79209 120.26538 68 ft 129 kts 70°
2026-05-05 07:31 14.79491 120.27255 67 ft 84 kts 68°
2026-05-05 07:32 14.79687 120.27736 68 ft 63 kts 68°
2026-05-05 07:32 14.79821 120.28075 68 ft 24 kts 68°
2026-05-05 07:32 14.79825 120.28159 68 ft 10 kts 130°
2026-05-05 07:32 14.79758 120.28188 68 ft 10 kts 174°
2026-05-05 07:33 14.79702 120.28148 68 ft 11 kts 249°
2026-05-05 07:33 14.79675 120.28071 68 ft 11 kts 249°
2026-05-05 07:33 14.79643 120.27991 68 ft 12 kts 247°
2026-05-05 07:33 14.79608 120.27908 68 ft 12 kts 247°
2026-05-05 07:34 14.79573 120.27819 67 ft 13 kts 247°
2026-05-05 07:34 14.79536 120.27730 67 ft 13 kts 247°
2026-05-05 07:34 14.79498 120.27635 67 ft 14 kts 247°
2026-05-05 07:34 14.79461 120.27541 67 ft 14 kts 248°
2026-05-05 07:35 14.79421 120.27443 67 ft 14 kts 247°
2026-05-05 07:35 14.79380 120.27344 67 ft 15 kts 246°
2026-05-05 07:35 14.79338 120.27244 67 ft 15 kts 246°
2026-05-05 07:35 14.79298 120.27142 67 ft 15 kts 248°
2026-05-05 07:36 14.79257 120.27038 67 ft 15 kts 247°
2026-05-05 07:36 14.79215 120.26935 67 ft 15 kts 248°
2026-05-05 07:36 14.79172 120.26829 67 ft 15 kts 247°
2026-05-05 07:36 14.79122 120.26768 67 ft 10 kts 181°
2026-05-05 07:37 14.79053 120.26794 67 ft 10 kts 156°
2026-05-05 07:37 14.79016 120.26801 67 ft 4 kts 210°
2026-05-05 07:37 14.78998 120.26770 67 ft 5 kts 246°
2026-05-05 07:37 14.78985 120.26738 67 ft 1 kts 246°
2026-05-05 07:38 14.78984 120.26736 67 ft 0 kts 246°